TimeEST,TemperatureF,Dew PointF,Humidity,Sea Level PressureIn,VisibilityMPH,Wind Direction,Wind SpeedMPH,Gust SpeedMPH,PrecipitationIn,Events,Conditions,WindDirDegrees,DateUTC
12:55 AM,46.0,41.2,83,30.32,10.0,East,4.6,-,N/A,,Clear,90,2013-01-24 05:55:00
1:55 AM,44.6,39.9,84,30.30,10.0,Calm,Calm,-,N/A,,Clear,0,2013-01-24 06:55:00
2:55 AM,43.7,40.5,88,30.28,10.0,East,3.5,-,N/A,,Clear,90,2013-01-24 07:55:00
3:55 AM,43.2,39.2,86,30.28,10.0,ENE,3.5,-,N/A,,Clear,60,2013-01-24 08:55:00
4:55 AM,45.9,44.6,95,30.29,10.0,NNE,5.8,-,N/A,,Clear,20,2013-01-24 09:55:00
5:55 AM,43.9,42.3,94,30.30,10.0,NE,5.8,-,N/A,,Clear,40,2013-01-24 10:55:00
6:55 AM,42.1,40.6,95,30.32,10.0,NE,6.9,-,N/A,,Clear,40,2013-01-24 11:55:00
7:55 AM,44.1,43.3,97,30.32,10.0,NE,5.8,-,N/A,,Clear,40,2013-01-24 12:55:00
8:55 AM,55.4,51.6,87,30.34,10.0,NNE,5.8,-,N/A,,Clear,30,2013-01-24 13:55:00
9:55 AM,63.3,47.7,57,30.36,10.0,North,8.1,-,N/A,,Clear,10,2013-01-24 14:55:00
10:55 AM,67.5,47.5,49,30.36,10.0,North,8.1,-,N/A,,Clear,10,2013-01-24 15:55:00
11:55 AM,71.4,48.9,45,30.34,10.0,Variable,6.9,-,N/A,,Clear,0,2013-01-24 16:55:00
12:55 PM,72.3,47.1,41,30.32,10.0,NNW,5.8,-,N/A,,Clear,340,2013-01-24 17:55:00
1:55 PM,72.3,51.3,47,30.28,10.0,North,10.4,-,0.01,,Clear,350,2013-01-24 18:55:00
2:55 PM,69.8,49.5,48,30.27,10.0,NNW,11.5,18.4,N/A,,Clear,340,2013-01-24 19:55:00
3:55 PM,69.1,50.5,52,30.28,10.0,NNW,12.7,18.4,N/A,,Clear,340,2013-01-24 20:55:00
4:55 PM,68.0,54.0,61,30.28,10.0,North,9.2,-,N/A,,Clear,350,2013-01-24 21:55:00
5:55 PM,64.8,54.9,70,30.28,10.0,North,4.6,-,N/A,,Clear,350,2013-01-24 22:55:00
6:55 PM,60.6,54.9,81,30.29,10.0,North,6.9,-,N/A,,Clear,350,2013-01-24 23:55:00
7:55 PM,59.4,55.2,86,30.30,10.0,North,5.8,-,N/A,,Clear,10,2013-01-25 00:55:00
8:55 PM,57.7,54.5,89,30.30,10.0,North,4.6,-,N/A,,Clear,10,2013-01-25 01:55:00
9:55 PM,52.5,50.2,92,30.30,10.0,Calm,Calm,-,N/A,,Clear,0,2013-01-25 02:55:00
10:55 PM,50.2,47.1,89,30.31,10.0,Calm,Calm,-,N/A,,Clear,0,2013-01-25 03:55:00
11:41 PM,48.2,46.4,93,30.30,2.5,Calm,Calm,-,N/A,,Clear,0,2013-01-25 04:41:00
11:43 PM,48.2,46.4,93,30.30,1.5,Calm,Calm,-,N/A,,Clear,0,2013-01-25 04:43:00
11:44 PM,48.2,46.4,93,30.30,1.2,Calm,Calm,-,N/A,,Clear,0,2013-01-25 04:44:00
11:46 PM,48.2,46.4,93,30.30,1.2,Calm,Calm,-,N/A,,Clear,0,2013-01-25 04:46:00
11:51 PM,48.2,46.4,93,30.31,1.5,Calm,Calm,-,N/A,,Clear,0,2013-01-25 04:51:00
11:52 PM,48.2,46.4,93,30.31,2.0,Calm,Calm,-,N/A,,Clear,0,2013-01-25 04:52:00
11:53 PM,48.2,46.4,93,30.31,2.5,NNW,4.6,-,N/A,,Clear,330,2013-01-25 04:53:00
11:54 PM,48.2,46.4,93,30.31,3.0,NNW,4.6,-,N/A,,Clear,330,2013-01-25 04:54:00
11:55 PM,48.9,46.9,93,30.31,4.0,NNW,4.6,-,N/A,,Clear,340,2013-01-25 04:55:00